www.pogodaiklimat.ru

Погода и климат >> Архив погоды >> Индия >> Орисса >> Самбалпур


ПОГОДА в Самбалпуре

  • Прогноз погоды в Самбалпуре
  • Монитор погоды в Самбалпуре

АРХИВ ПОГОДЫ в Самбалпуре

Время (UTC), дата Ветер
(напр.,м/с)
 
Видим.   Явления Облачность Т
(С)
Тd
(С)
f
(%)
Тe
(С)
Тes
(С)
Комфортность P
(гПа)
Po
(гПа)
Тmin
(С)
Tmax
(С)
R
(мм)
R24
(мм)
S
(см)
03 20.05 штиль 0 4000 м 3/3 600 м
[Sc]
+34.8 +23.7 53 +46 +56 опасность
перегрева
1007.4 991.0 +29.0
06 20.05 ЮЗ 1 4000 м 1/1 600 м
[Sc]
+40.2 +23.5 39 +50 +75 опасность
перегрева
1006.8 990.7
09 20.05 штиль 0 4000 м 4/3 600 м
[Sc diur, vesp Ac trans]
+42.4 +21.7 31 +49 +62 опасность
перегрева
1003.1 987.1
12 20.05 СВ 1 4000 м 6/5 600 м
[Sc diur, vesp Ac trans]
+38.8 +19.8 33 +44 +44 опасность
перегрева
1002.6 986.5 +42.7
03 21.05 СВ 1 4000 м ясно +33.0 +24.5 61 +46 +59 опасность
перегрева
1007.4 990.9 +27.6
06 21.05 штиль 0 4000 м ясно +39.0 +22.7 39 +48 +77 опасность
перегрева
1006.4 990.2
09 21.05 штиль 0 4000 м 1/1 600 м
[Sc diur, vesp]
+43.0 +21.8 30 +50 +68 опасность
перегрева
1003.1 987.2
12 21.05 штиль 0 4000 м 8/6 600 м
[Sc diur, vesp Ac trans]
+40.6 +24.0 39 +51 +52 опасность
перегрева
1002.0 986.0 +43.4
03 22.05 штиль 0 4000 м ясно +33.8 +20.7 46 +41 +54 опасность
перегрева
1006.3 989.9 +28.0
06 22.05 ЮЗ 1 4000 м ясно +40.0 +20.3 32 +45 +73 опасность
перегрева
1004.8 988.7
09 22.05 штиль 0 4000 м ясно +43.4 +20.4 27 +49 +68 опасность
перегрева
1001.9 986.0
12 22.05 штиль 0 4000 м ясно +40.4 +22.3 36 +49 +50 опасность
перегрева
1000.0 984.0 +43.9
03 23.05 Ю 1 4000 м ясно +33.4 +21.6 50 +41 +54 опасность
перегрева
1005.7 989.2 +27.6 0.3
06 23.05 штиль 0 4000 м ясно +39.2 +23.3 40 +49 +78 опасность
перегрева
1004.2 988.1
09 23.05 штиль 0 4000 м ясно +43.4 +23.8 33 +53 +73 опасность
перегрева
1000.7 984.8
12 23.05 штиль 0 4000 м 5/4 600 м
[Sc diur, vesp Ac trans]
+40.0 +25.3 44 +54 +54 опасность
перегрева
999.3 983.3 +43.9
03 24.05 ЮЗ 1 4000 м 3/3 600 м
[Sc]
+34.8 +24.3 55 +47 +56 опасность
перегрева
1006.0 989.6 +29.0
06 24.05 штиль 0 4000 м ясно +40.0 +23.9 40 +51 +80 опасность
перегрева
1004.2 988.1
09 24.05 штиль 0 4000 м 3/3 600 м
[Sc]
+43.6 +22.9 31 +52 +66 опасность
перегрева
1000.8 984.9
12 24.05 штиль 0 4000 м {гроза, дождь} 5/4 600 м
[Sc diur, vesp Ac trans]
+33.0 +23.5 58 +44 +45 опасность
перегрева
999.6 983.2 +43.9 3
03 25.05 Ю 1 4000 м ясно +34.2 +23.3 53 +45 +58 опасность
перегрева
1002.6 986.2 +28.2 3
06 25.05 штиль 0 4000 м 1/1
[Sc]
+41.0 +21.7 33 +48 +75 опасность
перегрева
1001.6 985.6
09 25.05 штиль 0 4000 м 4/3 600 м
[Sc diur, vesp Ac trans]
+45.0 +18.2 22 +48 +61 опасность
перегрева
998.3 982.6
12 25.05 штиль 0 4000 м 3/3 600 м
[Sc]
+41.8 +18.8 27 +46 +47 опасность
перегрева
996.6 980.7 +45.2
03 26.05 штиль 0 4000 м 4/3 600 м
[Sc Ac trans]
+34.0 +25.0 59 +47 +56 опасность
перегрева
1003.7 987.3 +29.2
06 26.05 штиль 0 4000 м 3/3 600 м
[Sc]
+40.0 +20.3 32 +45 +66 опасность
перегрева
1002.8 986.7
09 26.05 штиль 0 4000 м 1/1 600 м
[Sc]
+43.6 +19.0 25 +48 +65 опасность
перегрева
1000.0 984.2
12 26.05 штиль 0 4000 м 4/3 600 м
[Sc Ac trans]
+41.0 +21.3 32 +47 +48 опасность
перегрева
999.0 983.0 +44.0

 

Местоположение метеостанции Самбалпур (Орисса, Индия): широта 21.47 долгота 83.97 высота над уровнем моря 148 м.

В архиве по умолчанию представлена погода в Самбалпуре за последнюю неделю. Архивные данные за месяц целиком и за предыдущие месяцы, начиная с января 2011 года, Вы можете получить, выбрав интересующий диапазон дат из раскрывающегося списка и нажав кнопку "Ввод!".


*Определитесь, кто Вы:
робот инопланетянин человек

Внимание! Время в таблицах - всемирное. Для получения местного времени необходимо прибавить поправку, которая равна 5.5 ч.

Смотрите также архив погоды в соседних городах и на ближайших метеорологических станциях:

Погода в Харакаде (Орисса, Индия) (12 км)
Погода в Джхарсугуде (Орисса, Индия) (51 км)
Погода в Сундаргархе (Орисса, Индия) (73 км)
Погода в Пхулбани (Орисса, Индия) (114 км)
Погода в Ангуле (Орисса, Индия) (137 км)
Погода в Титилагаре (Орисса, Индия) (148 км)
Погода в Кендуджхаре (Орисса, Индия) (161 км)
Погода в Бхаванипатне (Орисса, Индия) (191 км)
Погода в Биласпуре (Чхаттисгарх, Индия) (199 км)
Погода в Амбикапуре (Чхаттисгарх, Индия) (203 км)

Пояснения к столбцам:

Ветер - указаны скорость ветра в м/с - средняя за 10 мин, порывы в срок и между сроками (в фигурных скобках) и направление, откуда дует ветер: С - северный, СВ - северо-восточный, В - восточный, ЮВ - юго-восточный, Ю - южный, ЮЗ - юго-западный, З - западный, СЗ - северо-западный.
Видимость - горизонтальная дальность видимости в метрах или километрах. При видимости от 1 до 10 км при отсутствии осадков обычно наблюдается дымка, при ухудшении видимости до 1 км и менее - туман. В сухую погоду видимость может ухудшаться дымом, пылью или мглою.
Явления - указаны атмосферные явления, наблюдавшиеся в срок или в последний час перед сроком; фигурными скобками обозначены явления, наблюдавшиеся между сроками (за 1-3 часа до срока); квадратными скобками обозначены град или гололедные отложения с указанием их диаметра в мм.
Облачность - указаны через наклонную черту общая и нижняя облачность в баллах и высота нижней границы облаков в метрах; квадратными скобками обозначены формы облаков: Ci - перистые, Cs - перисто-слоистые, Cc - перисто-кучевые, Ac - высококучевые, As - высокослоистые, Sc - слоисто-кучевые, Ns - слоисто-дождевые, Cu - кучевые, Cb - кучево-дождевые. Подробнее классификацию облаков см. в Атласе облаков (PDF).
T - Температура воздуха - температура, измеренная на высоте 2 м над землей.
Td - Температура точки росы - температура, при понижении до которой содержащийся в воздухе водяной пар достигнет насыщения.
f - Относительная влажность воздуха - влажноcть воздуха, измеренная на высоте 2 м над землей.
Te - Эффективная температура - температура, которую ощущает одетый по сезону человек в тени. Характеристика душности погоды. При расчете учитывается влияние влажности воздуха и скорости ветра на теплоощущения человека.
Tes - Эффективная температура на солнце - температура, которую ощущает человек, с поправкой на солнечный нагрев. Характеристика знойности погоды. Зависит от высоты солнца над горизонтом, облачности и скорости ветра. Ночью, в пасмурную погоду, а также при ветре 12 м/с и более поправка равна нулю.
P - Атмосферное давление - приведенное к уровню моря атмосферное давление.
Po - Атмосферное давление - измеренное на уровне метеостанции атмосферное давление.
Tmin - Минимальная температура - минимум температуры воздуха на высоте 2 м над землей.
Tmax - Максимальная температура - максимум температуры воздуха на высоте 2 м над землей.
R - Количество осадков - Количество выпавших осадков за период времени, мм. При наведении курсора мыши на число - период времени, за который выпало указанное количество осадков.
R24 - Количество осадков - Количество выпавших осадков за 24 часа, мм.
S - Снежный покров - Высота снежного покрова, см. При наведении курсора мыши на число - состояние снежного покрова и степень покрытия местности в баллах.